Weather observations for the past three days for
Brunswick / Glynco
Imperial (Metric)
Date Time (edt) Wind (mph) Vis. (mi.) Weather Sky Cond. Temperature (ºF) Relative Humidity Wind Chill (°F) Heat Index (°F) Pressure Precipitation (in)
Air Dwpt 6 hour altimeter (in) sea level (mb) 1 hr 3 hr 6 hr
Max. Min.
18 10:15 E 14 G 21 4.00 Partly Cloudy with Haze SCT039 SCT047 85.3 64.8 50% 87 30.13 0.0
18 09:55 E 17 G 22 5.00 Partly Cloudy with Haze SCT037 SCT047 85.5 66.2 53% 88 30.12 0.0
18 09:35 E 14 5.00 Partly Cloudy with Haze SCT037 85.1 66 53% 87 30.12 0.0
18 09:15 E 16 7.00 Partly Cloudy SCT037 83.5 66.6 57% 86 30.12 0.0
18 08:55 E 17 10.00 Fair CLR 82.9 66.7 58% 85 30.11 0.0
18 08:35 E 15 10.00 Fair CLR 82.4 67.5 61% 85 30.11 0.0
18 08:15 E 15 10.00 Fair CLR 81.3 67.8 64% 84 30.11 0.0
18 07:55 E 12 10.00 Fair CLR 80.1 68.7 80.2 70.7 68% 83 30.1 0.0
18 07:35 E 8 10.00 Fair CLR 78.3 69.6 75% 81 30.1 0.0
18 07:15 E 7 10.00 Fair CLR 75.7 69.1 80% 77 30.09 0.0
18 06:55 E 6 10.00 Fair CLR 71.8 67.8 87% 30.09 0.0
18 06:35 E 6 10.00 Fair CLR 70.9 67.1 88% 30.09 0.0
18 06:15 E 6 10.00 Fair CLR 71.6 67.6 87% 30.08 0.0
18 05:55 NE 8 10.00 Fair CLR 71.6 67.6 87% 30.08 0.0
18 05:35 NE 6 10.00 Fair CLR 73.4 68.5 85% 30.08 0.0
18 05:15 E 7 10.00 Fair CLR 72.9 68.4 86% 30.08 0.0
18 04:55 E 8 10.00 Partly Cloudy SCT055 73.2 68.5 85% 30.07 0.0
18 04:35 E 8 10.00 Mostly Cloudy BKN065 74.5 68.7 82% 30.07 0.0
18 04:15 E 8 10.00 Overcast OVC060 75.4 68 78% 76 30.08 0.0
18 03:55 NE 7 10.00 Mostly Cloudy BKN060 73.9 68 82% 30.08 0.0
18 03:35 E 7 10.00 Mostly Cloudy BKN060 72.7 67.8 85% 30.08 0.0
18 03:15 NE 8 10.00 Partly Cloudy SCT031 SCT060 73.9 68 82% 30.08 0.0
18 02:55 E 9 10.00 Partly Cloudy SCT060 73.6 68 83% 30.09 0.0
18 02:15 E 7 10.00 Fair CLR 72 67.8 87% 30.09 0.0
18 01:55 E 7 10.00 Fair CLR 72.7 68 81.3 71.8 85% 30.1 0.0
18 01:35 E 6 10.00 Fair CLR 72.7 67.8 85% 30.1 0.0
18 01:15 E 6 10.00 Fair CLR 72.3 68 86% 30.11 0.0
18 00:55 E 7 10.00 Fair CLR 72.3 67.8 86% 30.11 0.0
18 00:35 E 7 10.00 Fair CLR 72.7 68 85% 30.11 0.0
18 00:15 E 8 10.00 Fair CLR 72.5 67.8 85% 30.11 0.0
17 23:55 E 6 10.00 Fair CLR 72.9 67.6 84% 30.11 0.0
17 23:35 E 6 10.00 Fair CLR 73.2 67.1 81% 30.11 0.0
17 23:15 E 6 10.00 Fair CLR 73.6 66.6 79% 30.11 0.0
17 22:55 E 6 10.00 Fair CLR 73.4 66.6 79% 30.11 0.0
17 22:35 E 6 10.00 Fair CLR 73.2 66.7 80% 30.11 0.0
17 22:15 E 8 10.00 Fair CLR 73.4 66.2 78% 30.1 0.0
17 21:55 E 8 10.00 Fair CLR 76.8 66.4 70% 79 30.1 0.0
17 21:35 E 9 10.00 Fair CLR 77.4 67.8 73% 79 30.09 0.0
17 21:15 E 10 10.00 Partly Cloudy SCT032 SCT055 78.6 67.8 70% 81 30.09 0.0
17 20:55 E 9 10.00 Fair CLR 79.2 68.9 71% 82 30.09 0.0
17 20:35 E 13 10.00 Fair CLR 79.5 69.3 71% 82 30.09 0.0
17 20:15 E 15 10.00 Fair CLR 80.6 69.1 68% 84 30.08 0.0
17 19:55 NE 13 10.00 Fair CLR 81.3 69.3 90.1 81.3 67% 85 30.08 0.0
17 19:35 NE 13 10.00 Partly Cloudy SCT034 82 68.7 64% 85 30.08 0.0
17 19:15 E 13 10.00 Fair CLR 81.9 67.6 62% 85 30.08 0.0
17 18:55 E 15 10.00 Fair CLR 82.8 67.3 60% 85 30.08 0.0
17 18:35 E 17 10.00 Fair CLR 83.5 66.2 56% 86 30.08 0.0
17 18:15 E 17 10.00 Fair CLR 84.7 65.5 53% 87 30.09 0.0
17 17:55 E 18 10.00 Fair CLR 84.9 66.2 54% 87 30.09 0.0
17 17:35 E 17 G 23 10.00 Fair CLR 84.4 65.7 53% 86 30.09 0.0
17 17:15 NE 20 10.00 Partly Cloudy SCT038 SCT047 86.7 65.5 49% 89 30.1 0.0
17 16:55 NE 18 10.00 Partly Cloudy SCT038 SCT047 86.5 66.9 52% 89 30.11 0.0
17 16:35 E 21 10.00 Mostly Cloudy and Breezy SCT040 BKN050 87.4 65.8 49% 90 30.11 0.0
17 16:15 E 22 G 28 10.00 Partly Cloudy and Breezy SCT038 SCT046 SCT050 88 64.6 46% 90 30.11 0.0
17 15:55 E 20 G 25 10.00 Mostly Cloudy SCT038 BKN046 BKN090 88.2 66.9 49% 91 30.12 0.0
17 15:35 E 20 G 25 10.00 Mostly Cloudy BKN038 BKN046 BKN080 86 66.4 52% 88 30.13 0.0
17 15:15 E 17 10.00 Overcast BKN036 OVC044 87.6 68 52% 91 30.13 0.0
17 14:55 E 18 10.00 Mostly Cloudy SCT038 SCT049 BKN075 88.9 67.8 50% 93 30.13 0.0
17 14:35 E 18 G 22 10.00 Mostly Cloudy SCT037 SCT044 BKN075 88.3 67.8 51% 92 30.14 0.0
17 14:15 E 16 7.00 Mostly Cloudy SCT034 BKN044 BKN050 88.3 68.7 52% 93 30.14 0.0
17 13:55 E 16 G 21 10.00 Overcast BKN034 OVC044 86.7 70.2 88.9 82 58% 92 30.14 0.0
17 13:35 E 15 10.00 Overcast BKN034 OVC046 86.4 70.2 59% 91 30.15 0.0
17 13:15 E 16 10.00 Overcast BKN034 OVC042 87.1 70.2 57% 92 30.15 0.0
17 12:55 E 18 G 24 10.00 Overcast BKN032 OVC042 86.5 69.6 57% 91 30.15 0.0
17 12:35 E 17 G 22 5.00 Mostly Cloudy SCT029 BKN038 BKN045 88 70.9 57% 94 30.15 0.0
17 12:15 E 18 10.00 Mostly Cloudy SCT029 SCT035 BKN048 88.2 72.1 59% 95 30.15 0.0
17 11:55 E 18 G 24 10.00 Overcast BKN027 BKN033 OVC050 86.5 72.1 62% 93 30.15 0.0
17 11:35 E 15 G 18 10.00 Overcast SCT027 BKN036 OVC050 86 72.1 63% 92 30.15 0.0
17 11:15 E 16 G 22 7.00 Overcast with Haze BKN027 BKN034 OVC046 87.6 72.7 61% 95 30.15 0.0
17 10:55 E 17 G 24 7.00 Overcast BKN027 BKN033 OVC050 87.1 72.9 63% 94 30.15 0.0
17 10:35 E 16 10.00 Mostly Cloudy SCT027 SCT037 BKN050 87.1 74.1 65% 96 30.14 0.0
17 10:15 E 17 7.00 Mostly Cloudy SCT025 BKN037 BKN047 87.1 73 63% 95 30.14 0.0
17 09:55 E 13 G 18 5.00 Mostly Cloudy with Haze BKN023 BKN030 BKN037 86.7 73.9 66% 95 30.13 0.0
17 09:35 E 14 4.00 Mostly Cloudy with Haze BKN023 BKN030 BKN036 84.7 73.9 70% 92 30.13 0.0
17 09:15 E 12 7.00 Mostly Cloudy with Haze SCT025 BKN032 84.2 74.3 72% 92 30.13 0.0
17 08:55 E 13 5.00 Mostly Cloudy with Haze SCT023 BKN031 BKN038 83.8 74.8 74% 92 30.12 0.0
17 08:35 E 10 10.00 Partly Cloudy SCT021 SCT026 SCT031 82.4 74.8 78% 89 30.12 0.0
17 08:15 E 12 7.00 Fair CLR 82.8 75 78% 90 30.11 0.0
17 07:55 E 8 10.00 Fair CLR 81.7 75.2 81.9 70.5 81% 88 30.11 0.0
17 07:35 E 6 10.00 Fair CLR 79.9 75.7 87% 85 30.1 0.0
17 07:15 NE 3 10.00 Fair CLR 76.3 74.5 94% 76 30.1 0.0
17 06:55 E 5 10.00 Fair CLR 73.2 72.3 97% 30.09 0.0
17 06:35 NE 3 10.00 Partly Cloudy SCT032 74.8 73.9 97% 30.09 0.0
17 06:15 NE 3 10.00 Partly Cloudy SCT025 SCT032 74.1 73.4 98% 30.09 0.0
17 05:55 Calm 10.00 Partly Cloudy SCT027 SCT032 71.4 70.7 98% 30.09 0.0
17 05:35 NE 5 7.00 Fog/Mist SCT022 72.7 72.1 98% 30.09 0.0
17 05:15 Calm 7.00 Partly Cloudy SCT021 73 72.7 99% 30.09 0.0
17 04:55 Calm 5.00 Fog/Mist SCT021 SCT028 71.4 70.7 98% 30.09 0.0
17 04:35 Calm 5.00 Fog/Mist SCT021 70.9 70.2 98% 30.09 0.0
17 04:15 Calm 10.00 Partly Cloudy SCT021 73.2 72.5 98% 30.09 0.0
17 03:55 Calm 10.00 Fair CLR 73.2 72.3 97% 30.09 0.0
17 03:35 Calm 10.00 Fair CLR 71.8 70.3 95% 30.09 0.0
17 03:15 Calm 10.00 Fair CLR 73.9 72 94% 30.09 0.0
17 02:55 NE 3 10.00 Fair CLR 74.5 73.2 96% 30.1 0.0
17 02:35 Calm 10.00 Fair CLR 75 72.9 93% 74 30.1 0.0
17 02:15 Calm 10.00 Fair CLR 75.2 72.7 92% 74 30.1 0.0
17 01:55 E 5 10.00 Fair CLR 75.6 72.9 82.9 75.6 91% 75 30.11 0.0
17 01:35 E 3 10.00 Fair CLR 75.7 72.9 91% 75 30.11 0.0
17 01:15 E 6 10.00 Fair CLR 76.1 72.5 89% 76 30.11 0.0
17 00:55 E 5 10.00 Fair CLR 78.4 72.9 83% 81 30.12 0.0
17 00:35 E 6 10.00 Fair CLR 78.8 72.9 82% 82 30.12 0.0
17 00:15 E 5 10.00 Fair CLR 78.6 72.5 82% 82 30.11 0.0
16 23:55 E 7 10.00 Fair CLR 79 72.5 81% 82 30.11 0.0
16 23:35 E 6 10.00 Fair CLR 79.5 72.1 78% 83 30.11 0.0
16 23:15 E 8 10.00 Fair CLR 79.9 72 77% 84 30.11 0.0
16 22:55 E 9 10.00 Fair CLR 79.9 71.8 76% 84 30.1 0.0
16 22:35 E 9 10.00 Fair CLR 79.7 71.2 75% 83 30.1 0.0
16 22:15 E 8 10.00 Fair CLR 79.7 70.7 74% 83 30.1 0.0
16 21:55 E 7 10.00 Fair CLR 79.5 70.9 75% 83 30.1 0.0
16 21:35 E 6 10.00 Fair CLR 79.2 71.1 76% 82 30.1 0.0
16 21:15 E 7 10.00 Fair CLR 80.1 71.4 75% 84 30.1 0.0
16 20:55 E 8 10.00 Fair CLR 80.6 72.7 77% 85 30.1 0.0
16 20:35 E 9 10.00 Fair CLR 81.5 72.3 74% 86 30.09 0.0
16 20:15 E 9 10.00 Fair CLR 82.2 72 71% 87 30.09 0.0
16 19:55 E 12 10.00 Fair CLR 83.3 72.1 91.2 83.1 69% 89 30.08 0.0
16 19:35 E 12 10.00 Partly Cloudy SCT027 84.6 72.5 67% 91 30.08 0.0
16 19:15 E 15 10.00 Mostly Cloudy BKN027 84.4 72.3 67% 90 30.09 0.0
16 18:55 E 13 10.00 Partly Cloudy SCT029 85.1 72.3 66% 91 30.09 0.0
16 18:35 E 13 10.00 Mostly Cloudy BKN027 BKN034 86.2 72.9 65% 93 30.08 0.0
16 18:15 E 15 G 23 10.00 Mostly Cloudy BKN027 BKN032 86.4 73 65% 94 30.08 0.0
16 17:55 E 15 10.00 Partly Cloudy SCT027 87.3 72.5 62% 94 30.08 0.0
16 17:35 SE 14 G 23 10.00 Partly Cloudy SCT029 SCT034 86.4 72.7 64% 93 30.08 0.0
16 17:15 E 15 10.00 Partly Cloudy SCT029 SCT036 87.6 72.9 62% 95 30.08 0.0
16 16:55 E 14 G 20 10.00 Mostly Cloudy BKN031 88.2 72.5 60% 95 30.08 0.0
16 16:35 SE 14 G 23 5.00 Partly Cloudy with Haze SCT031 88.9 72 57% 96 30.07 0.0
16 16:15 SE 15 G 21 10.00 Partly Cloudy SCT031 88.9 71.4 56% 95 30.08 0.0
16 15:55 E 17 5.00 Mostly Cloudy with Haze BKN031 89.8 72.3 57% 97 30.08 0.0
16 15:35 SE 13 G 22 10.00 Partly Cloudy SCT031 SCT037 90.1 72.1 56% 98 30.08 0.0
16 15:15 E 14 10.00 Mostly Cloudy BKN033 90 72.3 56% 98 30.08 0.0
16 14:55 E 16 7.00 Mostly Cloudy with Haze BKN033 90.1 72 55% 97 30.09 0.0
16 14:35 E 16 10.00 Mostly Cloudy BKN033 90.1 71.8 55% 97 30.09 0.0
16 14:15 E 14 7.00 Partly Cloudy SCT033 90.1 71.6 55% 97 30.09 0.0
16 13:55 E 15 G 18 10.00 Partly Cloudy SCT035 90.3 70.7 91.9 78.3 53% 96 30.1 0.0
16 13:35 SE 13 G 18 10.00 Partly Cloudy with Haze SCT035 90.1 70.7 53% 96 30.1 0.0
16 13:15 E 12 G 21 10.00 Partly Cloudy SCT035 90.3 70.7 53% 96 30.11 0.0
16 12:55 SE 13 10.00 Fair CLR 89.8 70 52% 95 30.11 0.0
16 12:35 E 10 7.00 Partly Cloudy SCT033 89.8 70.5 53% 96 30.11 0.0
16 12:15 E 12 7.00 Mostly Cloudy with Haze BKN031 BKN038 89.2 71.4 56% 96 30.11 0.0
16 11:55 E 10 7.00 Partly Cloudy BKN031 SCT043 89.2 71.8 56% 96 30.12 0.0
16 11:35 SE 9 10.00 Partly Cloudy SCT031 SCT043 89.4 72.1 57% 97 30.11 0.0
16 11:15 E 9 5.00 Partly Cloudy with Haze SCT031 89.4 72.9 58% 97 30.12 0.0
16 10:55 E 10 10.00 Partly Cloudy SCT029 88.2 72.1 59% 95 30.11 0.0
16 10:35 SE 10 7.00 Fair CLR 88.7 72.3 58% 96 30.11 0.0
16 10:15 E 10 7.00 Fair with Haze CLR 87.4 72.1 61% 94 30.1 0.0
16 09:55 NE 8 4.00 Partly Cloudy with Haze SCT029 SCT035 86.9 73.2 64% 94 30.1 0.0
16 09:35 E 8 3.50 Mostly Cloudy with Haze SCT029 BKN035 86.2 73.2 65% 94 30.1 0.0
16 09:15 E 9 5.00 Partly Cloudy SCT020 85.6 73 66% 93 30.09 0.0
16 08:55 E 9 7.00 Partly Cloudy SCT018 84.6 74.7 72% 93 30.08 0.0
16 08:35 E 7 10.00 Fair CLR 83.1 75.6 78% 91 30.08 0.0
16 08:15 E 6 7.00 Fair CLR 81.3 76.3 85% 88 30.07 0.0
16 07:55 Calm 10.00 Fair CLR 77.7 75.4 78.1 66.7 93% 80 30.07 0.0
16 07:35 Calm 10.00 Partly Cloudy SCT023 74.3 73.8 98% 30.06 0.0
16 07:15 NE 3 1.00 Fog/Mist BKN002 BKN023 71.1 70.7 99% 30.05 0.0
16 06:55 Calm 0.25 Fog BKN019 69.1 68.7 99% 30.05 0.0
16 06:35 Calm 0.15 Fog OVC002 67.8 67.5 99% 30.04 0.0
16 06:15 Calm 0.15 Fog OVC002 69.1 68.9 99% 30.03 0.0
16 05:55 Calm 0.25 Fog OVC002 67.6 67.3 99% 30.03 0.0
16 05:35 Calm 0.50 Fog BKN002 67.6 67.3 99% 30.03 0.0
16 05:15 Calm 0.50 Fog OVC002 70 69.8 99% 30.02 0.0
16 04:55 Calm 0.25 Fog OVC002 69.1 68.9 99% 30.02 0.0
16 04:35 Calm 0.25 Fog BKN002 67.8 67.3 98% 30.02 0.0
16 04:15 NE 3 3.00 Fog/Mist SCT002 70.5 70.2 99% 30.02 0.0
16 03:55 Calm 0.50 Fog/Mist BKN002 68.2 67.6 98% 30.02 0.0
16 03:35 Calm 0.75 Fog/Mist VV005 70.2 69.8 99% 30.02 0.0
16 03:15 NE 3 1.25 Fog/Mist VV007 70.5 70.2 99% 30.02 0.0
16 02:55 Calm 1.75 Fog/Mist VV007 71.8 71.4 99% 30.02 0.0
16 02:35 Calm 7.00 Fog/Mist SCT019 68.9 67.8 96% 30.02 0.0
16 02:15 Calm 10.00 Fair CLR 70 69.1 97% 30.02 0.0
16 01:55 Calm 10.00 Fair CLR 72.1 71.6 84.9 70 98% 30.03 0.0
16 01:35 Calm 10.00 Fair CLR 70.7 70 98% 30.03 0.0
16 01:15 Calm 10.00 Fair CLR 71.6 70.3 96% 30.03 0.0
16 00:55 Calm 10.00 Fair CLR 72.5 71.8 98% 30.03 0.0
16 00:35 Calm 10.00 Fair CLR 71.1 69.8 96% 30.03 0.0
16 00:15 Calm 10.00 Fair CLR 73 71.4 95% 30.03 0.0
15 23:55 Calm 10.00 Fair CLR 74.1 71.6 92% 30.02 0.0
15 23:35 E 5 5.00 Fog/Mist CLR 74.1 71.2 91% 30.02 0.0
15 23:15 SE 6 10.00 Fair CLR 78.8 72.7 82% 82 30.02 0.0
15 22:55 SE 5 10.00 Fair CLR 78.8 72.3 81% 82 30.01 0.0
15 22:35 SE 5 10.00 Fair CLR 79.3 72 78% 83 30.01 0.0
15 22:15 SE 6 10.00 Fair CLR 79.7 72.1 78% 83 30.02 0.0
15 21:55 SE 7 10.00 Fair CLR 80.4 72.5 77% 85 30.01 0.0
15 21:35 SE 6 10.00 Fair CLR 79.9 72.5 78% 84 30.01 0.0
15 21:15 SE 6 10.00 Fair CLR 80.8 72 75% 85 30 0.0
15 20:55 SE 6 10.00 Fair CLR 81.3 71.1 71% 85 30 0.0
15 20:35 SE 5 10.00 Fair CLR 82.4 70.3 67% 87 30 0.0
15 20:15 SE 7 10.00 Fair CLR 83.7 69.6 63% 88 29.99 0.0
15 19:55 SE 8 10.00 Fair CLR 85.1 68.2 95.5 84.9 57% 89 29.99 0.0
15 19:35 SE 8 10.00 Fair CLR 86.7 66.6 51% 89 29.98 0.0
15 19:15 SE 10 10.00 Fair CLR 88.2 63.9 44% 89 29.97 0.0
15 18:55 E 12 7.00 Fair with Haze CLR 89.2 63 42% 90 29.97 0.0
15 18:35 E 12 7.00 Fair CLR 90.3 62.4 39% 91 29.97 0.0
15 18:15 E 10 10.00 Fair CLR 90.9 62.1 38% 91 29.97 0.0
15 17:55 E 13 10.00 Fair CLR 91.2 61.7 37% 92 29.97 0.0
15 17:35 SE 9 10.00 Fair CLR 91.6 62.2 38% 92 29.97 0.0
15 17:15 E 10 10.00 Fair CLR 92.7 62.1 36% 93 29.97 0.0
15 16:55 E 12 10.00 Fair CLR 93.4 62.4 36% 94 29.97 0.0
15 16:35 E 9 10.00 Fair CLR 92.7 61.9 36% 93 29.98 0.0
15 16:15 E 9 10.00 Fair CLR 93.4 62.1 35% 94 29.98 0.0
15 15:55 SE 8 G 16 10.00 Fair CLR 92.8 62.2 36% 94 29.98 0.0
15 15:35 SE 9 10.00 Fair CLR 93.6 61.7 35% 94 29.99 0.0
15 15:15 E 12 10.00 Fair CLR 93.9 63 36% 95 29.99 0.0
15 14:55 E 8 7.00 Fair with Haze CLR 93.4 63 36% 95 29.99 0.0
15 14:35 E 10 10.00 Fair CLR 93.9 62.4 35% 95 29.99 0.0
15 14:15 SE 10 7.00 Fair CLR 93.4 63.5 37% 95 29.99 0.0
15 13:55 SE 10 10.00 Fair CLR 94.8 62.8 95.7 73.2 35% 96 29.99 0.0
15 13:35 E 9 10.00 Fair CLR 94.3 64 37% 96 30 0.0
15 13:15 NE 6 10.00 Partly Cloudy SCT050 93.2 65.1 40% 96 30 0.0
15 12:55 NE 3 7.00 Fair with Haze CLR 93 67.5 43% 97 30 0.0
15 12:35 E 8 7.00 Fair CLR 93 65.5 40% 96 30.01 0.0
15 12:15 NE 7 7.00 Fair with Haze CLR 92.7 66.7 43% 96 30 0.0
15 11:55 NE 6 10.00 Fair CLR 91.6 66.2 43% 94 30 0.0
15 11:35 N 5 10.00 Fair CLR 90 66.2 46% 93 30 0.0
15 11:15 SE 5 10.00 Fair CLR 90 66 45% 93 30 0.0
15 10:55 Calm 10.00 Fair CLR 89.2 66.7 47% 92 29.99 0.0
15 10:35 NE 3 10.00 Fair CLR 87.4 68.9 54% 92 30 0.0
Date Time (edt) Wind (mph) Vis. (mi.) Weather Sky Cond. Air Dwpt Max. Min. Relative Humidity Wind Chill (°F) Heat Index (°F) altimeter (in) sea level (mb) 1 hr 3 hr 6 hr
6 hour
Temperature (ºF) Pressure Precipitation (in)